Regional Weather Roundup
Issued by NWS Upton, NY

Current Version | Previous Version | Text Only | Print | Product List | Glossary Off
Versions: 1 2 3 4 5 6 7 8 9 10 11 12 13 14 15 16 17 18 19 20 21 22 23 24 25 26 27 28 29 30 31 32 33 34 35 36 37 38 39 40 41 42 43 44 45 46 47 48 49 50
347 ASUS41 KOKX 191659 RWROKX REGIONAL WEATHER ROUNDUP NATIONAL WEATHER SERVICE NEW YORK NY 1200 PM EST SUN FEB 19 2017 NOTE: "FAIR" INDICATES FEW OR NO CLOUDS BELOW 12,000 FEET WITH NO SIGNIFICANT WEATHER AND/OR OBSTRUCTIONS TO VISIBILITY. NYZ071-072-176-178-NJZ106-104-191800- NEW YORK CITY METRO AREA CITY SKY/WX TMP DP RH WIND PRES REMARKS Central Park CLOUDY 61 34 36 NW8 29.83S Wall St Helipt NOT AVBL LaGuardia APRT CLOUDY 59 35 40 NW10 29.80S Kennedy INTL CLOUDY 63 38 39 W12 29.82S Breezy Point N/A 55 N/A N/A W5 N/A Newark/Liberty CLOUDY 64 34 32 NW10 29.81F Teterboro MOSUNNY 62 38 40 NW10 29.80F $$ NYZ177-179-078>081-191800- LONG ISLAND NEW YORK CITY SKY/WX TMP DP RH WIND PRES REMARKS Jones Beach N/A 50 N/A N/A W10 N/A Matinecock PT N/A 55 N/A N/A NW20 N/A Farmingdale MOSUNNY 60 36 40 NW7 29.81S MacArthur/ISP NOT AVBL Shirley NOT AVBL Westhampton MOSUNNY 59 35 40 W10 29.81S Southampton NOT AVBL Bridgehampton NOT AVBL East Hampton N/A 58 37 44 NW5 29.78S Montauk NOT AVBL $$ NYZ052-065-067-191800- HUDSON VALLEY CITY SKY/WX TMP DP RH WIND PRES REMARKS White Plains NOT AVBL Newburgh PTSUNNY 50 37 62 W14 29.81F Montgomery MOSUNNY 56 36 47 W10G18 29.78F Poughkeepsie CLOUDY 52 35 52 SW9 29.78F Albany MOSUNNY 50 32 50 W17G26 29.77F $$ NJZ001-105-106-008-010-013-015-019>022-104-191800- NEW JERSEY CITY SKY/WX TMP DP RH WIND PRES REMARKS Newark/Liberty CLOUDY 64 34 32 NW10 29.81F Teterboro MOSUNNY 62 38 40 NW10 29.80F Caldwell CLOUDY 62 37 39 NW7 29.81F Somerville CLOUDY 63 36 36 W9 29.81F Linden NOT AVBL Sussex CLOUDY 57 36 45 VRB6 29.82S Andover N/A 59 35 40 VRB5 29.82F Trenton SUNNY 65 39 38 W13G18 29.84S Millville CLOUDY 66 43 43 W9 29.86F Atlantic City CLOUDY 65 39 38 W9 29.85F Wrightstown NOT AVBL Toms River SUNNY 66 40 38 W13 29.84F Belmar PTSUNNY 66 38 35 W13 29.83F $$ PAZ047>061-062-071-191800- EASTERN PENNSYLVANIA CITY SKY/WX TMP DP RH WIND PRES REMARKS Philadelphia MOSUNNY 66 39 37 NW8G18 29.86F Allentown MOSUNNY 63 38 39 W12 29.84F Scranton PTSUNNY 57 40 52 W10 29.84F $$ CTZ002-004>006-009-010-012-RIZ004-006-007-MAZ004-011-015-191800- SOUTHERN NEW ENGLAND IN CT CITY SKY/WX TMP DP RH WIND PRES REMARKS Bradley INTL CLOUDY 54 32 43 W15G21 29.74F Hartford CLOUDY 57 35 43 W13 29.75F Danbury MOSUNNY 56 34 43 W7 29.79F Wtrbury/Oxford PTSUNNY 55 34 44 W9 29.79F Bridgeport MOSUNNY 59 39 47 CALM 29.78F Meriden PTSUNNY 58 33 39 W10 29.77F New Haven MOSUNNY 54 37 52 SW5 29.78F Chester N/A 59 34 38 VRB7G14 29.76F Groton NOT AVBL Wilimantic MOSUNNY 58 33 39 VRB7 29.75F IN RI CITY SKY/WX TMP DP RH WIND PRES REMARKS Providence PTSUNNY 57 34 41 W10 29.74F Block Island CLOUDY 52 37 56 W13 29.78S Westerly CLOUDY 51 34 52 SW8 29.77S IN MA CITY SKY/WX TMP DP RH WIND PRES REMARKS Boston CLOUDY 54 35 48 SW14 29.68F Worcester CLOUDY 50 32 50 W20G25 29.70F Westfield PTSUNNY 54 32 43 W9 29.73F Provincetown MOSUNNY 57 39 51 SW10 29.69F Nantucket MOSUNNY 55 36 48 W20 29.74S $$ ANZ330-335-338-340-345-350-353-355-191800- COASTAL MARINE OBSERVATIONS STATION/POSITION TIME SKY/WX TEMP WIND PRES VSBY WAVE AIR SEA DIR/SP/G HT/PER (UTC) (F) (DEG/KT/KT) (MB) (MI) (FT/S) NY HARB ENTRANCE 1550 49 42 250/ 6/ 6 1009.6 2/ 5 20 S FIRE ISLAND 1550 47 40 260/ 10/ 12 1009.6 3/ 5 GREAT SOUTH BAY NOT AVBL 23 SSW MONTAUK P 1550 47 44 1009.2 3/ 5 15 E BARNEGAT LI 1630 43 N/A 3/ 6 HUDSON CANYON 1550 51 1010.0 4/ 6 KINGS POINT 1624 58 38 1009.2 EXECUTION ROCKS NOT AVBL CENTRAL LI SOUND 1630 43 250/ 6/ 8 N/A 1 EASTERN LI SOUND NOT AVBL ROBBINS REEF 1624 60 290/ 11/ 12 1009.8 $$ >>>>>>>>>>>>>>>>>>>>>>>>>>>> KEY <<<<<<<<<<<<<<<<<<<<<<<<<<< > < > SKY/WX - Sky Condition/Present Weather < > TMP - Temperature in Fahrenheit < > DP - Dew Point in Fahrenheit < > RH - Relative Humidity in Percent < > WIND - Direction (from) and Speed in MPH < > PRES - Mean Sea Level Pressure (inches of Hg) < > WCI - Wind Chill Index < > VSB - VISIBILITY IN MILES < > HX - HEAT INDEX < > TC - TEMPERATURE IN CELSIUS < > VRB - VARIABLE WIND DIRECTION < > < >>>>>>>>>>>>>>>>>>>>>>>>>>>> KEY <<<<<<<<<<<<<<<<<<<<<<<<<<<

USA.gov is the U.S. government's official web portal to all federal, state and local government web resources and services.